Wetterdaten: aktuell Montag, 17.01.2022 19:45
Datum Zeit Temp. I. Temp. A. Bodent.-20cm Feuchte I. Feuchte A. BlattFeuchte BodenFeuchte Luftdruck Regen Wind Richtung Richtung Sonnenschein T Regen ET UV Solar Taupunkt Windchill Windben Empfang
17.01.2022 19:45 21,6 C 4,8 C 3,9 C 41 % 74 % 8 lf 24 cb 1026,9 hPa 0,0 mm 10,6 km/h (2 Bft) W-NW 296 0 min 0 min 0,001 mm 0,0 UV-I 0 W/m 0,6 C 1,4 C 45,1 km/h (6 Bft) 97,46 %
17.01.2022 18:45 21,6 C 4,7 C 3,9 C 41 % 76 % 4 lf 24 cb 1025,2 hPa 0,0 mm 6,9 km/h (2 Bft) W-NW 301 0 min 0 min 0,025 mm 0,0 UV-I 0 W/m 0,8 C 4,3 C 32,2 km/h (5 Bft) 100,00 %
17.01.2022 17:45 21,6 C 4,8 C 3,9 C 41 % 73 % 0 lf 24 cb 1024,0 hPa 0,0 mm 13,0 km/h (3 Bft) W-NW 299 0 min 0 min 0,025 mm 0,0 UV-I 0 W/m 0,4 C -0,1 C 43,5 km/h (6 Bft) 100,00 %
17.01.2022 16:45 21,6 C 5,0 C 3,9 C 41 % 71 % 0 lf 24 cb 1023,6 hPa 0,0 mm 6,1 km/h (2 Bft) N-NW 327 0 min 0 min 0,001 mm 0,0 UV-I 0 W/m 0,2 C 5,0 C 20,9 km/h (4 Bft) 100,00 %
17.01.2022 15:45 21,6 C 4,9 C 3,9 C 41 % 71 % 0 lf 24 cb 1022,7 hPa 0,0 mm 7,6 km/h (2 Bft) NW 305 0 min 0 min 0,051 mm 0,0 UV-I 8 W/m 0,1 C 3,8 C 35,4 km/h (5 Bft) 100,00 %
17.01.2022 14:45 21,6 C 4,8 C 3,9 C 41 % 72 % 0 lf 24 cb 1021,7 hPa 0,0 mm 6,4 km/h (2 Bft) W-NW 286 0 min 0 min 0,025 mm 0,0 UV-I 42 W/m 0,2 C 4,8 C 32,2 km/h (5 Bft) 100,00 %
17.01.2022 13:45 21,6 C 4,8 C 3,9 C 41 % 72 % 0 lf 24 cb 1022,0 hPa 0,0 mm 7,5 km/h (2 Bft) W-NW 296 0 min 0 min 0,051 mm 0,0 UV-I 25 W/m 0,2 C 3,8 C 25,7 km/h (4 Bft) 100,00 %
17.01.2022 12:45 21,6 C 4,8 C 3,9 C 41 % 73 % 0 lf 24 cb 1022,0 hPa 0,0 mm 15,9 km/h (3 Bft) W-NW 303 0 min 0 min 0,051 mm 0,2 UV-I 67 W/m 0,4 C -1,6 C 56,3 km/h (7 Bft) 97,44 %
17.01.2022 11:45 21,6 C 4,8 C 3,9 C 41 % 72 % 0 lf 24 cb 1022,6 hPa 0,0 mm 7,7 km/h (2 Bft) NW 309 0 min 0 min 0,050 mm 0,8 UV-I 102 W/m 0,2 C 3,6 C 30,6 km/h (5 Bft) 98,29 %
17.01.2022 10:45 21,6 C 5,1 C 3,9 C 41 % 71 % 0 lf 24 cb 1023,1 hPa 0,0 mm 7,5 km/h (2 Bft) N-NW 335 0 min 0 min 0,026 mm 0,0 UV-I 60 W/m 0,3 C 4,1 C 29,0 km/h (5 Bft) 98,29 %
17.01.2022 09:45 21,6 C 4,1 C 3,9 C 41 % 77 % 0 lf 24 cb 1023,8 hPa 0,0 mm 2,5 km/h (1 Bft) W-NW 282 0 min 0 min 0,025 mm 0,0 UV-I 32 W/m 0,4 C 4,1 C 12,9 km/h (3 Bft) 100,00 %
17.01.2022 08:45 21,6 C 4,1 C 3,9 C 41 % 77 % 0 lf 24 cb 1024,9 hPa 0,0 mm 8,3 km/h (2 Bft) W-NW 284 0 min 0 min 0,000 mm 0,0 UV-I 14 W/m 0,4 C 2,4 C 30,6 km/h (5 Bft) 100,00 %
17.01.2022 07:45 21,6 C 3,6 C 3,3 C 41 % 77 % 0 lf 24 cb 1024,2 hPa 0,0 mm 3,1 km/h (1 Bft) W-NW 287 0 min 0 min 0,026 mm 0,0 UV-I 0 W/m -0,0 C 3,6 C 12,9 km/h (3 Bft) 100,00 %
17.01.2022 06:45 21,6 C 3,4 C 3,3 C 41 % 79 % 0 lf 24 cb 1025,1 hPa 0,0 mm 5,3 km/h (1 Bft) W-NW 303 0 min 0 min 0,025 mm 0,0 UV-I 0 W/m 0,1 C 3,4 C 22,5 km/h (4 Bft) 100,00 %
17.01.2022 05:45 21,5 C 2,7 C 3,3 C 41 % 83 % 0 lf 24 cb 1024,5 hPa 0,0 mm 6,8 km/h (2 Bft) NW 309 0 min 0 min 0,025 mm 0,0 UV-I 0 W/m 0,1 C 2,3 C 30,6 km/h (5 Bft) 100,00 %
17.01.2022 04:45 21,5 C 2,8 C 3,3 C 41 % 80 % 0 lf 24 cb 1024,8 hPa 0,0 mm 4,1 km/h (1 Bft) W-SW 241 0 min 0 min 0,026 mm 0,0 UV-I 0 W/m -0,3 C 2,8 C 20,9 km/h (4 Bft) 98,20 %
17.01.2022 03:45 21,5 C 2,6 C 3,3 C 41 % 80 % 0 lf 24 cb 1025,7 hPa 0,0 mm 3,2 km/h (1 Bft) W 269 0 min 0 min 0,025 mm 0,0 UV-I 0 W/m -0,5 C 2,6 C 14,5 km/h (3 Bft) 97,44 %
17.01.2022 02:45 21,5 C 3,3 C 3,3 C 41 % 74 % 0 lf 24 cb 1026,3 hPa 0,0 mm 5,2 km/h (1 Bft) W 261 0 min 0 min 0,026 mm 0,0 UV-I 0 W/m -0,9 C 3,3 C 22,5 km/h (4 Bft) 100,00 %
17.01.2022 01:45 21,5 C 3,3 C 3,3 C 41 % 75 % 0 lf 24 cb 1026,7 hPa 0,0 mm 5,9 km/h (2 Bft) W 276 0 min 0 min 0,025 mm 0,0 UV-I 0 W/m -0,7 C 3,3 C 24,1 km/h (4 Bft) 100,00 %
17.01.2022 00:45 21,5 C 3,0 C 3,3 C 41 % 75 % 0 lf 24 cb 1027,1 hPa 0,0 mm 2,5 km/h (1 Bft) NW 305 0 min 0 min 0,000 mm 0,0 UV-I 0 W/m -1,0 C 3,0 C 19,3 km/h (3 Bft) 100,00 %
16.01.2022 23:45 21,5 C 2,8 C 3,3 C 41 % 75 % 0 lf 24 cb 1026,9 hPa 0,0 mm 4,6 km/h (1 Bft) W 278 0 min 0 min 0,025 mm 0,0 UV-I 0 W/m -1,2 C 2,8 C 17,7 km/h (3 Bft) 100,00 %
16.01.2022 22:45 21,5 C 2,4 C 3,3 C 41 % 78 % 0 lf 24 cb 1026,8 hPa 0,0 mm 1,4 km/h (1 Bft) W-NW 290 0 min 0 min 0,001 mm 0,0 UV-I 0 W/m -1,0 C 2,4 C 16,1 km/h (3 Bft) 100,00 %
16.01.2022 21:45 21,5 C 1,9 C 3,3 C 41 % 80 % 0 lf 24 cb 1026,7 hPa 0,0 mm 3,4 km/h (1 Bft) W-NW 282 0 min 0 min 0,025 mm 0,0 UV-I 0 W/m -1,2 C 1,9 C 14,5 km/h (3 Bft) 99,15 %
16.01.2022 20:45 21,6 C 2,5 C 3,3 C 42 % 76 % 0 lf 24 cb 1026,5 hPa 0,0 mm 3,2 km/h (1 Bft) NW 309 0 min 0 min 0,025 mm 0,0 UV-I 0 W/m -1,3 C 2,5 C 12,9 km/h (3 Bft) 96,58 %
16.01.2022 20:00 21,6 C 2,2 C 3,3 C 42 % 78 % 0 lf 24 cb 1026,2 hPa 0,0 mm 2,1 km/h (1 Bft) W-SW 251 0 min 0 min 0,000 mm 0,0 UV-I 0 W/m -1,2 C 2,2 C 14,5 km/h (3 Bft) 97,50 %
_ Min-Zeit 21:15 21:35 20:00 21:10 15:00 20:00 20:00 13:20 - 23:00 - - - - - - - 21:35 18:00 23:00 20:45
Minimum _ 21,5 C 1,8 C 3,3 C 41 % 70 % 0 lf 24 cb 1021,6 hPa - 0,7 km/h (0 Bft) - - - - - - - -1,4 C -1,9 C 6,4 km/h (2 Bft) 96,58 %
_ Max-Zeit 20:00 17:20 08:15 20:00 05:20 19:10 20:00 00:50 20:00 18:00 - - 20:00 20:00 12:05 11:45 11:55 19:20 10:35 18:00 21:50
Maximum _ 21,6 C 5,2 C 3,9 C 42 % 83 % 15 lf 24 cb 1027,3 hPa 0,0 mm 17,4 km/h
N-NW (3 Bft)
- - 0 min 0 min 0,051 mm 0,8 UV-I 129 W/m 0,9 C 5,0 C 57,9 km/h
NW (7 Bft)
100,00 %
Durchschnitt _ 21,6 C 3,7 C 3,6 C 41 % 75 % 1 lf 24 cb 1024,8 hPa #0,0 mm 6,0 km/h (2 Bft) W-NW - #0 min. #0 min. #0,559 mm 0,6 UV-I 43 W/m -0,3 C 2,8 C 25,7 km/h (4 Bft) 99,03 %